FW6644 Weather Reports


Display with metric or nautical units.
time (UTC)temp
F
wind
direction
speed
MPH
gust
MPH
rain 1hr
in
rain 24hr
in
rain mn
in
humidity
%
barometer
mb
20260504194545 78 333 1.0 9.0 0.00 0.00 0.00 37 1009.3
20260504193039 79 287 3.0 10.0 0.00 0.00 0.00 35 1009.8
20260504191551 80 243 2.0 7.0 0.00 0.00 0.00 34 1009.8
20260504190044 79 244 5.0 11.0 0.00 0.00 0.00 32 1009.5
20260504184551 79 115 3.0 8.0 0.00 0.00 0.00 31 1009.4
20260504183041 78 203 4.0 9.0 0.00 0.00 0.00 32 1009.7
20260504181539 78 228 3.0 14.0 0.00 0.00 0.00 32 1010.2
20260504180033 77 283 2.0 8.0 0.00 0.00 0.00 33 1009.9
20260504174531 78 173 3.0 8.0 0.00 0.00 0.00 33 1009.5
20260504173029 77 184 1.0 6.0 0.00 0.00 0.00 33 1009.4
20260504171528 77 129 4.0 12.0 0.00 0.00 0.00 33 1009.8
20260504081525 76 53 2.0 7.0 0.00 0.00 0.00 36 1007.1
20260504050113 80 157 4.0 12.0 0.00 0.00 0.00 25 1007.0
20260504044519 81 233 4.0 13.0 0.00 0.00 0.00 24 1006.9
20260504043012 82 63 5.0 12.0 0.00 0.00 0.00 22 1006.7
20260504041509 82 238 4.0 13.0 0.00 0.00 0.00 21 1006.3
20260504040012 83 342 6.0 15.0 0.00 0.00 0.00 21 1005.9
20260504034509 83 312 6.0 14.0 0.00 0.00 0.00 20 1005.7
20260504033008 84 191 8.0 19.0 0.00 0.00 0.00 19 1005.2
20260504031508 84 274 6.0 15.0 0.00 0.00 0.00 18 1005.0
20260504030030 85 191 6.0 12.0 0.00 0.00 0.00 17 1004.7
20260504024508 86 141 8.0 16.0 0.00 0.00 0.00 17 1004.3
20260504023007 87 143 7.0 22.0 0.00 0.00 0.00 16 1004.1
20260504021504 88 130 7.0 14.0 0.00 0.00 0.00 16 1003.8
20260504020005 89 204 9.0 18.0 0.00 0.00 0.00 16 1003.4
20260504014513 90 85 8.0 18.0 0.00 0.00 0.00 14 1003.3
20260504013003 91 181 5.0 12.0 0.00 0.00 0.00 12 1003.0
20260504011503 93 278 5.0 14.0 0.00 0.00 0.00 12 1003.0
20260504010003 94 204 6.0 15.0 0.00 0.00 0.00 12 1003.0
20260504004507 94 181 6.0 14.0 0.00 0.00 0.00 12 1003.0
20260504003005 95 51 5.0 15.0 0.00 0.00 0.00 12 1002.9
20260504001613 96 213 6.0 14.0 0.00 0.00 0.00 11 1003.0
20260504000059 96 214 6.0 18.0 0.00 0.00 0.00 12 1002.9
20260503234559 97 155 7.0 13.0 0.00 0.00 0.00 12 1002.8
20260503233058 97 215 6.0 14.0 0.00 0.00 0.00 11 1002.9
20260503231557 97 106 8.0 14.0 0.00 0.00 0.00 12 1003.1
20260503230100 97 304 3.0 9.0 0.00 0.00 0.00 12 1003.3
20260503224551 97 163 3.0 13.0 0.00 0.00 0.00 13 1003.6
20260503223056 97 205 2.0 8.0 0.00 0.00 0.00 13 1003.9
20260503221548 97 153 5.0 12.0 0.00 0.00 0.00 12 1004.2
20260503220044 96 226 6.0 12.0 0.00 0.00 0.00 13 1004.5
20260503214541 96 198 7.0 11.0 0.00 0.00 0.00 13 1004.8
20260503213056 96 356 6.0 17.0 0.00 0.00 0.00 13 1005.0
20260503211535 96 232 3.0 11.0 0.00 0.00 0.00 14 1005.2
20260503210031 95 238 5.0 13.0 0.00 0.00 0.00 14 1005.7
20260503204544 95 184 3.0 12.0 0.00 0.00 0.00 15 1005.8
20260503203028 96 180 5.0 15.0 0.00 0.00 0.00 15 1006.2
20260503201526 94 130 4.0 12.0 0.00 0.00 0.00 16 1006.2
20260503200024 95 160 4.0 12.0 0.00 0.00 0.00 16 1006.5